Home > Weather > Kenora > Past weeks

Flag for Canada Past Weather in Kenora, Ontario, Canada — Yesterday and Last 2 Weeks

Now
64 °F

Thunderstorms. Mostly cloudy.


Feels Like: 64 °F
Forecast: 64 / 77 °F
Wind: 14 mph from South

Location: Kenora

Current Time: Jun 25, 2016 at 12:18:23 AM

Latest Report: Jun 24, 2016 at 11:00 PM


Visibility: 15 mi

Pressure: 29.81 "Hg

Humidity: 94%

Dew Point: 63 °F

Location of KenoraLocation

Past Weather in Kenora — Graph

°F

Kenora Temperature Yesterday

Maximum temperature yesterday: 81 °F (at 4:00 PM)
Minimum temperature yesterday: 59 °F (at 5:00 AM)
Average temperature yesterday: 71 °F

High & Low Weather Summary for the Past Weeks

 TemperatureHumidityPressure
High81 °F (Jun 10, 5:00 PM)100% (Jun 13, 5:00 AM)30.26 "Hg (Jun 13, 5:00 AM)
Low52 °F (Jun 12, 3:00 PM)33% (Jun 11, 6:00 PM)29.65 "Hg (Jun 19, 8:00 PM)
Average64 °F68%29.96 "Hg
* Reported Jun 9 11:00 PM — Jun 24 11:00 PM, Kenora, Weather by CustomWeather, © 2016

Note: Actual official high and low records may vary slightly from our data, if they occured in-between our weather recording intervals... More about our weather records

Advertising

Kenora Weather History for the Previous 24 Hours

Scroll right to see more
 ConditionsComfort  
Time TempWeatherWind HumidityBarometerVisibility
11:00 PM
Fri, Jun 24
64 °FThunderstorms. Mostly cloudy.14 mph94%29.81 "Hg15 mi
10:00 PM75 °FThunderstorms. Passing clouds.13 mph54%29.85 "Hg15 mi
9:00 PM75 °FBroken clouds.6 mph50%29.82 "Hg15 mi
8:00 PM77 °FPartly sunny.8 mph47%29.84 "Hg15 mi
7:00 PM79 °FBroken clouds.5 mph45%29.87 "Hg15 mi
6:00 PM79 °FBroken clouds.6 mph45%29.89 "Hg15 mi
5:00 PM79 °FBroken clouds.10 mph42%29.92 "Hg15 mi
4:00 PM81 °FPartly sunny.13 mph39%29.93 "Hg15 mi
3:00 PM79 °FPartly sunny.10 mph45%29.94 "Hg15 mi
2:00 PM79 °FBroken clouds.9 mph45%29.94 "Hg15 mi
1:00 PM79 °FBroken clouds.12 mph42%29.96 "Hg15 mi
12:00 PM77 °FBroken clouds.8 mph51%29.96 "Hg15 mi
11:00 AM75 °FScattered clouds.12 mph54%29.97 "Hg15 mi
10:00 AM73 °FPassing clouds.12 mph57%29.98 "Hg15 mi
9:00 AM70 °FPassing clouds.8 mph64%29.99 "Hg15 mi
8:00 AM68 °FScattered clouds.6 mph69%30.00 "Hg15 mi
7:00 AM64 °FPassing clouds.3 mph78%30.00 "Hg15 mi
6:00 AM61 °FPassing clouds.5 mph88%29.99 "Hg15 mi
5:00 AM59 °FClear.3 mph88%29.98 "Hg15 mi
4:00 AM63 °FClear.3 mph77%29.99 "Hg15 mi
3:00 AM63 °FClear.3 mph73%30.00 "Hg15 mi
2:00 AM63 °FClear.3 mph73%29.99 "Hg15 mi
1:00 AM64 °FClear.3 mph68%29.99 "Hg15 mi
12:00 AM68 °FClear.5 mph60%29.99 "Hg15 mi
Weather by CustomWeather, © 2016

See weather overviewHow to use our weather pages